KN6KS Weather Reports


Display with metric or nautical units.
time (UTC)temp
F
wind
direction
speed
MPH
gust
MPH
rain 1hr
in
rain 24hr
in
rain mn
in
humidity
%
barometer
mb
20260903152050 69 246 4.0 5.0 0.00 0.00 0.00 36 1013.6
20260903151549 69 38 6.0 7.0 0.00 0.00 0.00 36 1013.4
20260903151045 68 341 6.0 7.0 0.00 0.00 0.00 37 1013.4
20260903150544 68 320 5.0 6.0 0.00 0.00 0.00 37 1013.6
20260903150040 68 317 3.0 5.0 0.00 0.00 0.00 37 1013.4
20260903145534 67 308 5.0 6.0 0.00 0.00 0.00 38 1013.6
20260903145029 67 302 5.0 7.0 0.00 0.00 0.00 38 1013.5
20260903144528 67 294 8.0 9.0 0.00 0.00 0.00 38 1013.6
20260903144025 66 207 3.0 3.0 0.00 0.00 0.00 39 1013.3
20260903143520 65 274 7.0 8.0 0.00 0.00 0.00 40 1013.4
20260903143016 65 306 6.0 7.0 0.00 0.00 0.00 41 1013.5
20260903142511 65 326 3.0 3.0 0.00 0.00 0.00 41 1013.4
20260903142008 64 35 2.0 3.0 0.00 0.00 0.00 42 1013.5
20260903141504 64 64 3.0 3.0 0.00 0.00 0.00 43 1013.4
20260903140958 63 233 1.0 2.0 0.00 0.00 0.00 45 1013.4
20260903140453 63 288 4.0 5.0 0.00 0.00 0.00 45 1013.3
20260903135943 63 326 4.0 6.0 0.00 0.00 0.00 45 1013.2
20260903135438 62 260 2.0 3.0 0.00 0.00 0.00 45 1013.3
20260903134933 62 140 0.0 1.0 0.00 0.00 0.00 46 1013.4
20260903134432 63 321 1.0 2.0 0.00 0.00 0.00 45 1013.2
20260903133929 63 261 4.0 6.0 0.00 0.00 0.00 45 1013.4
20260903133426 64 316 4.0 6.0 0.00 0.00 0.00 43 1013.2
20260903132921 64 244 1.0 1.0 0.00 0.00 0.00 43 1013.4
20260903132416 65 256 3.0 5.0 0.00 0.00 0.00 42 1013.1
20260903131917 65 243 6.0 7.0 0.00 0.00 0.00 41 1013.3
20260903131417 65 238 9.0 9.0 0.00 0.00 0.00 40 1013.3
20260903130915 65 253 2.0 2.0 0.00 0.00 0.00 40 1013.4
20260903130411 66 252 4.0 5.0 0.00 0.00 0.00 40 1013.1
20260903125910 66 5 2.0 2.0 0.00 0.00 0.00 39 1013.4
20260903125410 66 295 2.0 2.0 0.00 0.00 0.00 39 1013.2
20260903124904 66 299 5.0 6.0 0.00 0.00 0.00 40 1013.0
20260903124359 66 247 4.0 6.0 0.00 0.00 0.00 40 1013.0
20260903123858 66 234 3.0 5.0 0.00 0.00 0.00 40 1013.2
20260903123353 65 262 4.0 5.0 0.00 0.00 0.00 40 1013.4
20260903122851 66 304 8.0 9.0 0.00 0.00 0.00 39 1013.2
20260903122346 64 284 9.0 9.0 0.00 0.00 0.00 39 1013.3
20260903121845 64 298 5.0 6.0 0.00 0.00 0.00 41 1013.3
20260903121340 65 338 5.0 7.0 0.00 0.00 0.00 39 1013.3
20260903120836 65 310 5.0 6.0 0.00 0.00 0.00 40 1013.2
20260903120335 65 278 6.0 7.0 0.00 0.00 0.00 38 1013.2
20260903115833 64 310 5.0 6.0 0.00 0.00 0.00 40 1013.2
20260903115329 64 295 7.0 8.0 0.00 0.00 0.00 40 1013.4
20260903114828 65 271 6.0 7.0 0.00 0.00 0.00 40 1013.4
20260903114324 65 338 11.0 11.0 0.00 0.00 0.00 39 1013.5
20260903113819 65 326 8.0 9.0 0.00 0.00 0.00 39 1013.4
20260903113315 66 303 8.0 10.0 0.00 0.00 0.00 39 1013.3
20260903112810 65 332 10.0 13.0 0.00 0.00 0.00 39 1013.5
20260903112306 65 349 11.0 11.0 0.00 0.00 0.00 40 1013.3
20260903111805 65 334 9.0 14.0 0.00 0.00 0.00 42 1013.2
20260903111300 65 314 10.0 13.0 0.00 0.00 0.00 42 1013.2
20260903110756 64 290 8.0 9.0 0.00 0.00 0.00 43 1013.4
20260903110252 65 333 12.0 14.0 0.00 0.00 0.00 43 1013.8
20260903105751 65 314 10.0 13.0 0.00 0.00 0.00 42 1013.4
20260903105246 65 318 10.0 13.0 0.00 0.00 0.00 43 1013.5
20260903104746 65 329 9.0 10.0 0.00 0.00 0.00 43 1013.5
20260903104241 65 334 8.0 9.0 0.00 0.00 0.00 42 1013.4
20260903103737 66 307 9.0 10.0 0.00 0.00 0.00 41 1013.4
20260903103233 65 358 6.0 8.0 0.00 0.00 0.00 42 1013.4
20260903102728 66 318 11.0 14.0 0.00 0.00 0.00 42 1013.6
20260903102222 66 332 12.0 15.0 0.00 0.00 0.00 42 1013.6
20260903101721 66 18 12.0 14.0 0.00 0.00 0.00 42 1013.5
20260903101218 66 276 11.0 13.0 0.00 0.00 0.00 42 1013.5
20260903100718 66 301 11.0 13.0 0.00 0.00 0.00 43 1013.3
20260903100218 66 302 9.0 10.0 0.00 0.00 0.00 43 1013.8
20260903095715 66 304 9.0 10.0 0.00 0.00 0.00 43 1013.6
20260903095210 67 290 6.0 8.0 0.00 0.00 0.00 43 1013.9
20260903094705 67 255 7.0 8.0 0.00 0.00 0.00 43 1013.9
20260903094200 67 259 11.0 13.0 0.00 0.00 0.00 42 1013.8
20260903093655 67 237 9.0 10.0 0.00 0.00 0.00 42 1013.6
20260903093151 67 221 14.0 17.0 0.00 0.00 0.00 41 1013.9
20260903092645 67 262 11.0 13.0 0.00 0.00 0.00 41 1014.2